EW4729 Weather Reports


Display with metric or nautical units.
time (UTC)temp
F
wind
direction
speed
MPH
gust
MPH
rain 1hr
in
rain 24hr
in
rain mn
in
humidity
%
barometer
mb
20260904190553 88 100 1.0 4.0 0.00 0.00 0.00 71 1014.4
20260904185555 88 0 2.0 4.0 0.00 0.00 0.00 73 1014.2
20260904185055 88 48 1.0 5.0 0.00 0.00 0.00 73 1014.2
20260904184605 89 27 1.0 5.0 0.00 0.00 0.00 72 1014.3
20260904184053 89 303 1.0 4.0 0.00 0.00 0.00 72 1014.5
20260904183553 88 30 0.0 3.0 0.00 0.00 0.00 72 1014.4
20260904183058 88 0 0.0 3.0 0.00 0.00 0.00 71 1014.6
20260904182552 88 268 0.0 6.0 0.00 0.00 0.00 71 1014.8
20260904182053 88 269 2.0 8.0 0.00 0.00 0.00 70 1014.7
20260904181604 88 269 3.0 8.0 0.00 0.00 0.00 69 1014.7
20260904181054 88 317 1.0 9.0 0.00 0.00 0.00 71 1014.7
20260904180552 88 128 1.0 9.0 0.00 0.00 0.00 71 1014.7
20260904180100 89 139 2.0 8.0 0.00 0.00 0.00 71 1014.8
20260904175552 89 96 3.0 8.0 0.00 0.00 0.00 71 1014.8
20260904175052 89 167 3.0 7.0 0.00 0.00 0.00 71 1014.9
20260904174602 89 32 2.0 8.0 0.00 0.00 0.00 69 1015.0
20260904174052 90 104 2.0 8.0 0.00 0.00 0.00 67 1014.9
20260904173552 91 19 2.0 8.0 0.00 0.00 0.00 65 1014.9
20260904173104 91 0 1.0 6.0 0.00 0.00 0.00 64 1014.9
20260904172552 92 111 2.0 8.0 0.00 0.00 0.00 64 1015.1
20260904172052 92 0 2.0 8.0 0.00 0.00 0.00 63 1014.9
20260904171623 93 145 2.0 7.0 0.00 0.00 0.00 62 1015.1
20260904171052 94 180 3.0 7.0 0.00 0.00 0.00 62 1015.1
20260904170555 95 187 1.0 7.0 0.00 0.00 0.00 61 1015.2
20260904170059 95 212 2.0 11.0 0.00 0.00 0.00 60 1015.1
20260904165553 96 204 5.0 11.0 0.00 0.00 0.00 60 1015.2
20260904165053 95 211 5.0 14.0 0.00 0.00 0.00 61 1015.1
20260904164605 95 220 5.0 14.0 0.00 0.00 0.00 59 1015.0
20260904164052 95 143 4.0 10.0 0.00 0.00 0.00 61 1015.0
20260904163552 94 157 6.0 10.0 0.00 0.00 0.00 61 1015.1
20260904163103 93 153 5.0 9.0 0.00 0.00 0.00 62 1015.2
20260904162552 93 0 2.0 7.0 0.00 0.00 0.00 66 1015.2
20260904162053 92 279 4.0 10.0 0.00 0.00 0.00 67 1015.2
20260904161611 92 237 3.0 10.0 0.00 0.00 0.00 66 1015.0
20260904161052 92 202 6.0 10.0 0.00 0.00 0.00 64 1015.0
20260904160553 92 184 2.0 9.0 0.00 0.00 0.00 67 1015.0
20260904160104 92 238 3.0 9.0 0.00 0.00 0.00 68 1015.0
20260904155555 92 252 3.0 10.0 0.00 0.00 0.00 67 1015.0
20260904155055 92 251 2.0 10.0 0.00 0.00 0.00 67 1015.0
20260904154602 92 244 5.0 10.0 0.00 0.00 0.00 67 1015.0
20260904154055 91 248 4.0 9.0 0.00 0.00 0.00 69 1015.0
20260904153552 90 248 4.0 11.0 0.00 0.00 0.00 69 1014.9
20260904153119 89 181 5.0 12.0 0.00 0.00 0.00 70 1014.9
20260904152551 89 232 6.0 12.0 0.00 0.00 0.00 71 1015.0
20260904152052 88 213 5.0 10.0 0.00 0.00 0.00 72 1015.0
20260904151605 88 205 5.0 10.0 0.00 0.00 0.00 72 1015.0
20260904151053 88 223 5.0 10.0 0.00 0.00 0.00 70 1015.1
20260904150552 88 201 5.0 10.0 0.00 0.00 0.00 72 1015.0
20260904150103 89 207 3.0 9.0 0.00 0.00 0.00 72 1015.0
20260904145553 89 175 5.0 10.0 0.00 0.00 0.00 73 1015.0
20260904145053 89 211 6.0 10.0 0.00 0.00 0.00 73 1014.9
20260904144614 88 209 6.0 10.0 0.00 0.00 0.00 75 1015.0
20260904144052 87 146 1.0 8.0 0.00 0.00 0.00 80 1014.9
20260904143552 86 167 2.0 8.0 0.00 0.00 0.00 82 1014.7
20260904143121 85 0 1.0 5.0 0.00 0.00 0.00 84 1014.7
20260904142552 85 140 1.0 7.0 0.00 0.00 0.00 86 1014.7
20260904142052 84 219 3.0 7.0 0.00 0.00 0.00 87 1014.7
20260904141559 84 197 5.0 9.0 0.00 0.00 0.00 88 1014.7
20260904141051 83 226 5.0 9.0 0.00 0.00 0.00 89 1014.8
20260904140556 83 215 5.0 9.0 0.00 0.00 0.00 90 1014.7
20260904140058 82 190 4.0 6.0 0.00 0.00 0.00 91 1014.7
20260904135552 82 209 3.0 6.0 0.00 0.00 0.00 91 1014.6
20260904135053 81 193 3.0 6.0 0.00 0.00 0.00 92 1014.6
20260904134606 81 190 2.0 4.0 0.00 0.00 0.00 92 1014.6
20260904134052 81 188 0.0 5.0 0.00 0.00 0.00 92 1014.5
20260904133552 81 188 2.0 6.0 0.00 0.00 0.00 93 1014.5
20260904133111 81 193 3.0 6.0 0.00 0.00 0.00 93 1014.4
20260904132552 80 161 3.0 6.0 0.00 0.00 0.00 93 1014.4
20260904132052 80 0 0.0 0.0 0.00 0.00 0.00 93 1014.4
20260904131603 80 0 0.0 0.0 0.00 0.00 0.00 93 1014.2
20260904131056 79 0 0.0 0.0 0.00 0.00 0.00 93 1014.3
20260904130551 79 0 0.0 0.0 0.00 0.00 0.00 93 1014.2
20260904130108 79 0 0.0 0.0 0.00 0.00 0.00 92 1014.3
20260904125552 79 0 0.0 0.0 0.00 0.00 0.00 92 1014.2
20260904125056 79 0 0.0 0.0 0.00 0.00 0.00 92 1014.1
20260904124559 78 0 0.0 0.0 0.00 0.00 0.00 92 1014.2
20260904124052 79 0 0.0 0.0 0.00 0.00 0.00 92 1014.1
20260904123553 79 0 0.0 0.0 0.00 0.00 0.00 92 1014.1
20260904123100 78 0 0.0 0.0 0.00 0.00 0.00 92 1014.1
20260904122552 78 0 0.0 0.0 0.00 0.00 0.00 92 1014.0
20260904122052 79 0 0.0 0.0 0.00 0.00 0.00 92 1014.0
20260904121556 79 0 0.0 0.0 0.00 0.00 0.00 92 1013.9
20260904121051 79 0 0.0 0.0 0.00 0.00 0.00 92 1013.8
20260904120552 79 0 0.0 0.0 0.00 0.00 0.00 92 1013.9
20260904120109 79 0 0.0 0.0 0.00 0.00 0.00 92 1013.8
20260904115552 78 0 0.0 0.0 0.00 0.00 0.00 91 1013.6
20260904115052 79 0 0.0 0.0 0.00 0.00 0.00 91 1013.6
20260904114606 79 0 0.0 0.0 0.00 0.00 0.00 91 1013.5
20260904114053 79 0 0.0 0.0 0.00 0.00 0.00 91 1013.6
20260904113551 79 0 0.0 0.0 0.00 0.00 0.00 91 1013.7
20260904113058 79 0 0.0 0.0 0.00 0.00 0.00 91 1013.8
20260904112552 79 0 0.0 0.0 0.00 0.00 0.00 91 1013.7
20260904112051 79 0 0.0 0.0 0.00 0.00 0.00 91 1013.7
20260904111557 79 0 0.0 0.0 0.00 0.00 0.00 91 1013.7
20260904111051 79 0 0.0 0.0 0.00 0.00 0.00 91 1013.7
20260904110552 79 0 0.0 0.0 0.00 0.00 0.00 91 1013.7
20260904110101 79 0 0.0 0.0 0.00 0.00 0.00 91 1013.7
20260904105552 79 0 0.0 0.0 0.00 0.00 0.00 91 1013.7
20260904105052 79 0 0.0 0.0 0.00 0.00 0.00 90 1013.6
20260904104601 79 0 0.0 0.0 0.00 0.00 0.00 90 1013.6
20260904104052 79 0 0.0 0.0 0.00 0.00 0.00 90 1013.6
20260904103551 79 0 0.0 0.0 0.00 0.00 0.00 90 1013.6
20260904103057 79 0 0.0 0.0 0.00 0.00 0.00 90 1013.6
20260904102552 79 0 0.0 0.0 0.00 0.00 0.00 90 1013.6
20260904102052 79 0 0.0 0.0 0.00 0.00 0.00 90 1013.5
20260904101606 79 0 0.0 0.0 0.00 0.00 0.00 90 1013.5
20260904101054 79 0 0.0 0.0 0.00 0.00 0.00 90 1013.4
20260904100552 79 0 0.0 0.0 0.00 0.00 0.00 90 1013.3
20260904100059 79 0 0.0 0.0 0.00 0.00 0.00 90 1013.3
20260904095553 79 0 0.0 0.0 0.00 0.00 0.00 90 1013.2
20260904095053 79 0 0.0 0.0 0.00 0.00 0.00 90 1013.2
20260904094559 79 0 0.0 0.0 0.00 0.00 0.00 90 1013.2
20260904094052 79 0 0.0 0.0 0.00 0.00 0.00 90 1013.3
20260904093552 79 0 0.0 0.0 0.00 0.00 0.00 90 1013.3
20260904093100 79 0 0.0 0.0 0.00 0.00 0.00 90 1013.3
20260904092551 79 0 0.0 0.0 0.00 0.00 0.00 90 1013.1
20260904092052 79 0 0.0 0.0 0.00 0.00 0.00 90 1013.2
20260904091601 79 0 0.0 0.0 0.00 0.00 0.00 90 1013.2
20260904091051 79 0 0.0 0.0 0.00 0.00 0.00 90 1013.2
20260904090552 79 0 0.0 0.0 0.00 0.00 0.00 90 1013.2
20260904090100 79 0 0.0 0.0 0.00 0.00 0.00 90 1013.2
20260904085552 79 0 0.0 0.0 0.00 0.00 0.00 90 1013.2
20260904085054 79 0 0.0 0.0 0.00 0.00 0.00 90 1013.2
20260904084601 80 0 0.0 0.0 0.00 0.00 0.00 89 1013.3
20260904084055 80 0 0.0 0.0 0.00 0.00 0.00 89 1013.2
20260904083555 80 0 0.0 0.0 0.00 0.00 0.00 89 1013.2
20260904083105 80 0 0.0 0.0 0.00 0.00 0.00 89 1013.2
20260904082554 80 0 0.0 0.0 0.00 0.00 0.00 89 1013.2
20260904082054 80 0 0.0 0.0 0.00 0.00 0.00 89 1013.3
20260904081600 80 0 0.0 0.0 0.00 0.00 0.00 89 1013.3
20260904081054 80 0 0.0 0.0 0.00 0.00 0.00 89 1013.3
20260904080557 80 0 0.0 0.0 0.00 0.00 0.00 89 1013.3
20260904080121 80 0 0.0 0.0 0.00 0.00 0.00 89 1013.2
20260904075557 80 0 0.0 0.0 0.00 0.00 0.00 89 1013.2
20260904075053 80 0 0.0 0.0 0.00 0.00 0.00 89 1013.2
20260904074556 80 0 0.0 0.0 0.00 0.00 0.00 89 1013.2
20260904074057 80 0 0.0 0.0 0.00 0.00 0.00 89 1013.3
20260904073554 80 0 0.0 0.0 0.00 0.00 0.00 89 1013.3
20260904073112 80 0 0.0 0.0 0.00 0.00 0.00 89 1013.3
20260904072557 80 0 0.0 0.0 0.00 0.00 0.00 89 1013.4
20260904072057 80 0 0.0 0.0 0.00 0.00 0.00 89 1013.4
20260904071603 80 0 0.0 0.0 0.00 0.00 0.00 89 1013.4
20260904071054 80 0 0.0 0.0 0.00 0.00 0.00 89 1013.5
20260904070554 80 0 0.0 0.0 0.00 0.00 0.00 89 1013.5
20260904065553 80 0 0.0 0.0 0.00 0.00 0.00 89 1013.5
20260904065051 80 0 0.0 0.0 0.00 0.00 0.00 89 1013.6
20260904064557 80 0 0.0 0.0 0.00 0.00 0.00 89 1013.5
20260904064051 80 0 0.0 0.0 0.00 0.00 0.00 89 1013.5
20260904063553 80 0 0.0 5.0 0.00 0.00 0.00 89 1013.6
20260904063116 80 0 0.0 5.0 0.00 0.00 0.00 89 1013.6
20260904062555 80 162 1.0 5.0 0.00 0.00 0.00 88 1013.5
20260904062054 80 157 0.0 3.0 0.00 0.00 0.00 88 1013.5
20260904061557 80 157 0.0 3.0 0.00 0.00 0.00 88 1013.5
20260904061056 80 0 0.0 3.0 0.00 0.00 0.00 88 1013.4
20260904060555 80 155 0.0 5.0 0.00 0.00 0.00 88 1013.5
20260904060056 80 0 1.0 5.0 0.00 0.00 0.00 88 1013.4
20260904055551 80 151 0.0 3.0 0.00 0.00 0.00 88 1013.5
20260904055054 80 150 1.0 5.0 0.00 0.00 0.00 88 1013.6
20260904054604 80 159 1.0 5.0 0.00 0.00 0.00 88 1013.6
20260904054051 80 157 0.0 0.0 0.00 0.00 0.00 88 1013.5
20260904053551 80 0 0.0 0.0 0.00 0.00 0.00 88 1013.4
20260904053130 81 0 0.0 0.0 0.00 0.00 0.00 87 1013.6
20260904052555 81 0 0.0 0.0 0.00 0.00 0.00 87 1013.5
20260904052055 81 0 0.0 0.0 0.00 0.00 0.00 87 1013.4
20260904051600 81 0 0.0 6.0 0.00 0.00 0.00 87 1013.4
20260904051054 81 0 0.0 6.0 0.00 0.00 0.00 87 1013.4
20260904050556 81 0 1.0 6.0 0.00 0.00 0.00 87 1013.4
20260904050104 81 148 0.0 5.0 0.00 0.00 0.00 87 1013.4
20260904045551 81 148 1.0 5.0 0.00 0.01 0.00 87 1013.4
20260904045051 81 0 0.0 0.0 0.00 0.01 0.00 87 1013.5
20260904044614 81 0 0.0 2.0 0.00 0.01 0.00 87 1013.5
20260904044051 81 0 0.0 2.0 0.00 0.01 0.00 87 1013.4
20260904043554 81 0 0.0 3.0 0.00 0.01 0.00 87 1013.5
20260904043104 81 0 0.0 3.0 0.00 0.01 0.00 87 1013.5
20260904042553 81 150 0.0 3.0 0.00 0.01 0.00 87 1013.5
20260904042052 81 0 0.0 3.0 0.00 0.01 0.00 87 1013.5
20260904041603 81 0 0.0 0.0 0.00 0.01 0.00 87 1013.5
20260904041053 81 0 0.0 2.0 0.00 0.01 0.00 86 1013.5
20260904040554 81 0 0.0 4.0 0.00 0.01 0.00 86 1013.5
20260904040059 81 145 0.0 4.0 0.00 0.01 0.00 86 1013.6
20260904035554 81 141 0.0 6.0 0.00 0.02 0.00 86 1013.6
20260904035054 81 0 0.0 6.0 0.00 0.02 0.00 86 1013.6
20260904034602 81 148 0.0 6.0 0.00 0.02 0.00 86 1013.6
20260904034055 81 147 2.0 6.0 0.00 0.02 0.00 87 1013.5
20260904033557 81 142 0.0 5.0 0.00 0.02 0.00 87 1013.4
20260904033105 81 142 1.0 5.0 0.00 0.02 0.00 87 1013.5
20260904032556 81 89 0.0 7.0 0.00 0.02 0.00 87 1013.4
20260904032059 81 142 2.0 7.0 0.00 0.02 0.00 87 1013.3
20260904031603 81 185 1.0 7.0 0.00 0.02 0.00 87 1013.4
20260904031051 81 155 1.0 6.0 0.00 0.02 0.00 87 1013.3
20260904030554 81 144 1.0 8.0 0.00 0.02 0.00 87 1013.4
20260904030103 81 162 1.0 8.0 0.00 0.02 0.00 87 1013.3
20260904025551 81 178 1.0 8.0 0.00 0.02 0.00 87 1013.3
20260904025055 81 126 1.0 8.0 0.00 0.02 0.00 87 1013.2
20260904024601 81 166 2.0 8.0 0.00 0.02 0.00 87 1013.1
20260904024054 81 0 1.0 8.0 0.00 0.02 0.00 86 1013.1
20260904023554 81 156 2.0 8.0 0.00 0.02 0.00 86 1013.2
20260904023055 81 120 0.0 6.0 0.00 0.02 0.00 86 1013.0
20260904022554 81 156 1.0 6.0 0.00 0.02 0.00 86 1013.0
20260904022055 81 172 0.0 9.0 0.00 0.02 0.00 86 1013.0
20260904021616 81 0 1.0 9.0 0.00 0.02 0.00 86 1012.9
20260904021051 81 0 2.0 9.0 0.00 0.02 0.00 86 1012.9
20260904020551 81 107 2.0 7.0 0.00 0.02 0.00 86 1012.8
20260904015554 81 106 1.0 4.0 0.00 0.02 0.00 86 1012.8
20260904015055 81 134 0.0 11.0 0.00 0.02 0.00 86 1012.8
20260904014606 81 0 2.0 11.0 0.00 0.02 0.00 86 1012.7
20260904014055 81 163 3.0 11.0 0.00 0.02 0.00 86 1012.6
20260904013554 81 142 2.0 8.0 0.00 0.02 0.00 85 1012.5
20260904013125 81 151 2.0 8.0 0.00 0.02 0.00 85 1012.5
20260904012553 81 167 1.0 8.0 0.00 0.02 0.00 85 1012.4
20260904012054 81 150 2.0 7.0 0.00 0.02 0.00 85 1012.4
20260904011645 81 131 2.0 7.0 0.00 0.02 0.00 85 1012.5
20260904011055 81 111 1.0 7.0 0.00 0.02 0.00 84 1012.4
20260904010555 81 161 2.0 7.0 0.00 0.02 0.00 84 1012.5
20260904010057 81 89 1.0 8.0 0.00 0.02 0.00 84 1012.4
20260904005554 81 131 2.0 8.0 0.00 0.02 0.00 84 1012.4
20260904005052 81 0 2.0 8.0 0.00 0.02 0.00 84 1012.4
20260904004603 81 97 2.0 8.0 0.00 0.02 0.00 83 1012.4
20260904004051 82 105 1.0 8.0 0.00 0.02 0.00 83 1012.4
20260904003554 82 105 3.0 8.0 0.00 0.02 0.00 83 1012.4
20260904003057 82 149 2.0 9.0 0.00 0.02 0.00 83 1012.5
20260904002554 82 0 3.0 10.0 0.00 0.02 0.00 83 1012.4
20260904002055 82 86 3.0 10.0 0.00 0.02 0.00 83 1012.4
20260904001603 82 96 3.0 10.0 0.00 0.02 0.00 82 1012.3
20260904001051 82 86 3.0 11.0 0.00 0.02 0.00 82 1012.2
20260904000551 82 95 4.0 13.0 0.00 0.02 0.00 82 1012.2
20260904000104 82 96 6.0 13.0 0.00 0.02 0.00 82 1012.2
20260903235552 82 95 4.0 12.0 0.00 0.02 0.00 82 1012.2
20260903235051 82 116 4.0 12.0 0.00 0.02 0.00 82 1012.3
20260903234557 82 82 4.0 12.0 0.00 0.02 0.00 81 1012.4
20260903234055 83 69 4.0 16.0 0.00 0.02 0.00 81 1012.4
20260903233554 83 142 5.0 16.0 0.00 0.02 0.00 80 1012.4
20260903233056 83 177 5.0 12.0 0.00 0.02 0.00 79 1012.4
20260903232557 83 106 4.0 11.0 0.00 0.02 0.00 79 1012.5
20260903232051 83 160 4.0 15.0 0.00 0.02 0.00 79 1012.4
20260903231604 84 112 4.0 15.0 0.00 0.02 0.00 78 1012.3
20260903231054 84 84 5.0 11.0 0.00 0.02 0.00 78 1012.2
20260903230557 84 119 4.0 11.0 0.00 0.02 0.00 78 1012.2
20260903230058 84 76 4.0 11.0 0.00 0.02 0.00 78 1012.2
20260903225555 84 114 5.0 11.0 0.00 0.02 0.00 78 1012.1
20260903225054 84 19 4.0 12.0 0.00 0.02 0.00 78 1012.1
20260903224612 84 88 3.0 13.0 0.00 0.02 0.00 78 1012.2
20260903224055 84 96 5.0 13.0 0.00 0.02 0.00 78 1012.2
20260903223552 83 76 6.0 11.0 0.00 0.02 0.00 78 1012.1
20260903223101 83 74 3.0 8.0 0.00 0.02 0.00 78 1012.2
20260903222558 83 91 3.0 7.0 0.00 0.02 0.00 78 1012.1
20260903222052 83 98 3.0 7.0 0.00 0.02 0.00 78 1012.1
20260903221559 83 107 2.0 7.0 0.00 0.02 0.00 78 1012.2
20260903221055 83 132 3.0 8.0 0.00 0.02 0.00 78 1012.2
20260903220551 83 88 2.0 8.0 0.00 0.02 0.00 78 1012.2
20260903220104 82 82 3.0 8.0 0.00 0.02 0.00 78 1012.0
20260903215552 82 128 1.0 8.0 0.00 0.02 0.00 78 1012.1
20260903215055 82 128 2.0 8.0 0.00 0.02 0.00 78 1012.0
20260903214610 82 134 3.0 10.0 0.00 0.02 0.00 78 1012.1
20260903214055 82 173 3.0 11.0 0.00 0.02 0.00 79 1012.3
20260903213553 82 126 3.0 11.0 0.00 0.02 0.00 79 1012.5
20260903213057 82 88 5.0 11.0 0.00 0.02 0.00 78 1012.7
20260903212555 82 92 2.0 10.0 0.00 0.02 0.00 78 1012.8
20260903212052 82 69 4.0 13.0 0.00 0.02 0.00 78 1013.0
20260903211604 82 111 5.0 14.0 0.00 0.02 0.00 77 1013.2
20260903211054 82 76 7.0 14.0 0.00 0.02 0.00 77 1013.3
20260903210555 83 65 7.0 14.0 0.00 0.02 0.00 76 1013.4
20260903210140 83 82 8.0 19.0 0.00 0.02 0.00 75 1013.5
20260903205551 84 107 8.0 19.0 0.00 0.02 0.00 75 1013.3
20260903205055 84 73 10.0 19.0 0.00 0.02 0.00 74 1013.2
20260903204606 85 101 8.0 25.0 0.00 0.02 0.00 73 1013.2
20260903204054 86 72 9.0 25.0 0.00 0.02 0.00 71 1013.3
20260903203555 87 67 9.0 24.0 0.00 0.02 0.00 69 1013.1
20260903203057 89 44 8.0 18.0 0.00 0.02 0.00 66 1013.0
20260903202554 91 126 10.0 18.0 0.00 0.02 0.00 62 1012.8
20260903202054 94 79 7.0 16.0 0.00 0.02 0.00 57 1012.5
20260903201558 96 109 8.0 14.0 0.00 0.02 0.00 54 1012.4
20260903201053 98 19 3.0 9.0 0.00 0.02 0.00 50 1012.2
20260903200553 98 159 1.0 9.0 0.00 0.02 0.00 49 1012.2
20260903200117 98 202 6.0 9.0 0.00 0.02 0.00 49 1012.1
20260903195554 98 167 2.0 5.0 0.00 0.02 0.00 49 1012.4
20260903195053 98 0 2.0 5.0 0.00 0.02 0.00 49 1012.4
20260903194559 98 100 2.0 5.0 0.00 0.02 0.00 50 1012.4
20260903194053 98 223 1.0 4.0 0.00 0.02 0.00 51 1012.4
20260903193553 97 222 1.0 4.0 0.00 0.02 0.00 51 1012.4
20260903193058 97 244 2.0 6.0 0.00 0.02 0.00 51 1012.4
20260903192554 97 259 2.0 7.0 0.00 0.02 0.00 52 1012.5
20260903192053 97 232 1.0 7.0 0.00 0.02 0.00 52 1012.6
20260903191607 97 202 4.0 11.0 0.00 0.02 0.00 51 1012.7
20260903191053 98 0 6.0 11.0 0.00 0.02 0.00 52 1012.5